Fandom

Home Movies

List of Episodes

201pages on
this wiki
Add New Page
Comments0 Share

This is a complete list of Home Movies episodes categorized by season. A separate list of "Movies within the show" is in the works.

Season One Edit

# Total Title Original air date
1 1 Get Away From My Mom April 26, 1999 (1999-04-26)
2 2 I Don't Do Well In Parent-Teacher Conferences May 3, 1999 (1999-05-03)
3 3 The Art of the Sucker Punch May 10, 1999 (1999-05-10)
4 4 Brendon Gets Rabies May 17, 1999 (1999-05-17)
5 5 Yoko May 24, 1999 (1999-05-24)
6 6 Director's Cut September 2, 2001 (2001-09-02)
7 7 It Was Supposed to Be Funny September 9, 2001 (2001-09-09)
8 8 Method of Acting September 16, 2001 (2001-09-16)
9 9 Life Through a Fisheye Lens September 23, 2001 (2001-09-23)
10 10 School Nurse September 30, 2001 (2001-09-30)
11 11 Mortgages & Marbles September 30, 2001 (2001-09-30)
12 12 Law and Boarder October 7, 2001 (2001-10-07)
13 13 Brendon's Choice October 7, 2001 (2001-10-07)

Season Two Edit

# Total Title Original air date
1 14 Politics January 6, 2002 (2002-01-06)
2 15 Identifying a Body January 13, 2002 (2002-01-13)
3 16 Hiatus January 20, 2002 (2002-01-20)
4 17 Business & Pleasure January 27, 2002 (2002-01-27)
5 18 The Party February 3, 2002 (2002-02-03)
6 19 Impressions February 10, 2002 (2002-02-10)
7 20 Dad (Part 1) February 17, 2002 (2002-02-17)
8 21 Therapy (Part 2) February 24, 2002 (2002-02-24)
9 22 Class Trip March 3, 2002 (2002-03-03)
10 23 History March 10, 2002 (2002-03-10)
11 24 Writer's Block March 17, 2002 (2002-03-17)
12 25 Pizza Club March 24, 2002 (2002-03-24)
13 26 The Wedding March 31, 2002 (2002-03-31)

Season Three Edit

#

Total Title Original air date
1 27 Shore Leave August 4, 2002 (2002-08-04)
2 28 Breaking Up is Hard to Do August 11, 2002 (2002-08-11)
3 29 Bad Influences August 18, 2002 (2002-08-18)
4 30 Improving Your Life Through Improv August 25, 2002 (2002-08-25)
5 31 Four's Company October 6, 2002 (2002-10-06)
6 32 Renaissance October 13, 2002 (2002-10-13)
7 33 My Cheatin' Heart October 20, 2002 (2002-10-20)
8 34 Guitarmageddon October 27, 2002 (2002-10-27)
9 35 Storm Warning November 3, 2002 (2002-11-03)
10 36 Time to Pay the Price November 10, 2002 (2002-11-10)
11 37 Broken Dreams November 17, 2002 (2002-11-17)

12

38 Stowaway November 24, 2002 (2002-11-24)
13 39 Coffins and Cradles

May 25, 2003 (2003-05-25)

Season Four Edit

# Total Title Original air date
1 40 Everybody's Entitled to My Opinion November 11, 2003 (2003-11-11)
2 41 Camp January 11, 2004 (2004-01-11)
3 42 Bye, Bye Greasy January 18, 2004 (2004-01-18)
4 43 The Heart Smashers January 25, 2004 (2004-01-25)
5 44 The Wizard's Baker February 8, 2004 (2004-02-08)
6 45 Psycho-Delicate February 15, 2004 (2004-02-15)
7 46 Curses February 22, 2004 (2004-02-22)
8 47 Honkey Magoo February 29, 2004 (2004-02-29)
9 48 Those Bitches Tried to Cheat Me March 7, 2004 (2004-03-07)
10 49 Cho and the Adventures of Amy Lee March 14, 2004 (2004-03-14)
11 50 Definite Possible Murder March 21, 2004 (2004-03-21)
12 51 Temporary Blindness March 28, 2004 (2004-03-28)
13 52 Focus Grill April 4, 2004 (2004-04-04)

Ad blocker interference detected!


Wikia is a free-to-use site that makes money from advertising. We have a modified experience for viewers using ad blockers

Wikia is not accessible if you’ve made further modifications. Remove the custom ad blocker rule(s) and the page will load as expected.